BRITE-PL2 (HEWELIUSZ)

Last updated on Sun Dec 14 2025 00:03:36 GMT+0000 (Coordinated Universal Time)

1 40119U 14049B 25347.26971629 .00003401 00000+0 32666-3 0 9999 2 40119 97.8993 93.1369 0014524 11.9017 348.2543 14.93663678613684
UTC large
Height (km)
Speed (km/s)
/
Latitude / Longitude
Inclination (degrees)
Orbital Period (minutes)
Azimuth
Elevation
Range (km)
Doppler Factor

Next 0 passes for location: London (51.5072 / 0.1276)

Sorry there are no passes over London.